| time (UTC) | temp C | wind direction | speed KPH | gust KPH | rain 1hr cm | rain 24hr cm | rain mn cm | humidity % | barometer mb |
| 20260504081536 | 10 | 162 | 4.8 | 11.3 | 0.00 | 0.00 | 0.00 | 72 | 1005.7 |
| 20260504044553 | 12 | 179 | 11.3 | 17.7 | 0.00 | 0.00 | 0.00 | 61 | 1007.4 |
| 20260504043046 | 12 | 186 | 8.0 | 25.7 | 0.00 | 0.00 | 0.00 | 60 | 1007.6 |
| 20260504041543 | 12 | 172 | 11.3 | 20.9 | 0.00 | 0.00 | 0.00 | 60 | 1007.6 |
| 20260504040054 | 13 | 185 | 9.7 | 25.7 | 0.00 | 0.00 | 0.00 | 59 | 1007.7 |
| 20260504034555 | 13 | 184 | 11.3 | 22.5 | 0.00 | 0.00 | 0.00 | 59 | 1007.9 |
| 20260504033054 | 12 | 184 | 6.4 | 16.1 | 0.00 | 0.00 | 0.00 | 61 | 1008.1 |
| 20260504031538 | 12 | 211 | 6.4 | 16.1 | 0.00 | 0.00 | 0.00 | 63 | 1008.2 |
| 20260504030044 | 12 | 187 | 4.8 | 12.9 | 0.00 | 0.00 | 0.00 | 64 | 1008.3 |
| 20260504024537 | 12 | 174 | 4.8 | 12.9 | 0.00 | 0.00 | 0.00 | 64 | 1008.3 |
| 20260504023042 | 12 | 178 | 4.8 | 11.3 | 0.00 | 0.00 | 0.00 | 65 | 1008.3 |
| 20260504021535 | 12 | 156 | 4.8 | 14.5 | 0.00 | 0.00 | 0.00 | 64 | 1008.3 |
| 20260504020037 | 12 | 157 | 6.4 | 11.3 | 0.00 | 0.00 | 0.00 | 62 | 1008.3 |
| 20260504014541 | 13 | 153 | 4.8 | 12.9 | 0.00 | 0.00 | 0.00 | 61 | 1008.3 |
| 20260504013033 | 13 | 196 | 6.4 | 16.1 | 0.00 | 0.00 | 0.00 | 59 | 1008.4 |
| 20260504011532 | 13 | 150 | 4.8 | 16.1 | 0.00 | 0.00 | 0.00 | 58 | 1008.3 |
| 20260504010031 | 13 | 192 | 6.4 | 17.7 | 0.00 | 0.00 | 0.00 | 55 | 1008.3 |
| 20260504004532 | 13 | 201 | 8.0 | 19.3 | 0.00 | 0.00 | 0.00 | 54 | 1008.4 |
| 20260504003034 | 13 | 180 | 6.4 | 14.5 | 0.00 | 0.00 | 0.00 | 53 | 1008.3 |
| 20260504001527 | 14 | 185 | 6.4 | 16.1 | 0.00 | 0.00 | 0.00 | 53 | 1008.4 |
| 20260504000026 | 14 | 188 | 6.4 | 12.9 | 0.00 | 0.00 | 0.00 | 51 | 1008.5 |
| 20260503234537 | 14 | 228 | 4.8 | 16.1 | 0.00 | 0.00 | 0.00 | 51 | 1008.6 |
| 20260503233025 | 14 | 209 | 8.0 | 17.7 | 0.00 | 0.00 | 0.00 | 50 | 1008.6 |
| 20260503231524 | 15 | 180 | 4.8 | 14.5 | 0.00 | 0.00 | 0.00 | 50 | 1008.7 |
| 20260503230023 | 15 | 188 | 6.4 | 14.5 | 0.00 | 0.00 | 0.00 | 49 | 1008.8 |
| 20260503224623 | 15 | 196 | 6.4 | 20.9 | 0.00 | 0.00 | 0.00 | 49 | 1008.6 |
| 20260503223019 | 15 | 188 | 3.2 | 14.5 | 0.00 | 0.00 | 0.00 | 49 | 1008.9 |
| 20260503221520 | 15 | 241 | 8.0 | 17.7 | 0.00 | 0.00 | 0.00 | 47 | 1009.0 |
| 20260503220019 | 15 | 196 | 8.0 | 17.7 | 0.00 | 0.00 | 0.00 | 48 | 1008.9 |
| 20260503214516 | 15 | 198 | 9.7 | 16.1 | 0.00 | 0.00 | 0.00 | 48 | 1009.1 |
| 20260503213013 | 15 | 217 | 6.4 | 20.9 | 0.00 | 0.00 | 0.00 | 47 | 1009.7 |
| 20260503211511 | 15 | 221 | 9.7 | 19.3 | 0.00 | 0.00 | 0.00 | 47 | 1009.9 |
| 20260503210010 | 15 | 244 | 11.3 | 24.1 | 0.00 | 0.00 | 0.00 | 45 | 1010.0 |
| 20260503204507 | 15 | 242 | 6.4 | 22.5 | 0.00 | 0.00 | 0.00 | 47 | 1010.3 |
| 20260503203004 | 15 | 207 | 8.0 | 19.3 | 0.00 | 0.00 | 0.00 | 48 | 1010.5 |
| 20260503201502 | 14 | 184 | 11.3 | 24.1 | 0.00 | 0.00 | 0.00 | 48 | 1010.9 |
| 20260503200101 | 11 | 106 | 4.8 | 11.3 | 0.00 | 0.00 | 0.00 | 63 | 1011.7 |
| 20260503194557 | 11 | 150 | 6.4 | 11.3 | 0.00 | 0.00 | 0.00 | 63 | 1012.0 |
| 20260503193100 | 11 | 76 | 1.6 | 8.0 | 0.00 | 0.00 | 0.00 | 64 | 1013.0 |
| 20260503191654 | 11 | 63 | 1.6 | 4.8 | 0.00 | 0.00 | 0.00 | 63 | 1012.7 |
| 20260503190052 | 11 | 299 | 0.0 | 14.5 | 0.00 | 0.00 | 0.00 | 60 | 1012.8 |
| 20260503184558 | 12 | 183 | 11.3 | 30.6 | 0.00 | 0.00 | 0.00 | 52 | 1013.1 |
| 20260503183110 | 13 | 257 | 9.7 | 24.1 | 0.00 | 0.00 | 0.00 | 48 | 1013.2 |
| 20260503181549 | 13 | 214 | 9.7 | 22.5 | 0.00 | 0.00 | 0.00 | 41 | 1013.2 |
| 20260503180048 | 13 | 158 | 9.7 | 22.5 | 0.00 | 0.00 | 0.00 | 40 | 1013.3 |
| 20260503174544 | 14 | 177 | 9.7 | 19.3 | 0.00 | 0.00 | 0.00 | 42 | 1013.8 |
| 20260503173109 | 13 | 173 | 11.3 | 20.9 | 0.00 | 0.00 | 0.00 | 40 | 1014.0 |
| 20260503171545 | 14 | 182 | 9.7 | 24.1 | 0.00 | 0.00 | 0.00 | 40 | 1014.1 |
| 20260503120125 | 5 | 200 | 3.2 | 11.3 | 0.00 | 0.00 | 0.00 | 70 | 1016.0 |